BVX34GB LFBO-EGLL

Flight info

Callsign BVX34GB
Flight time N/A
Altitude 34000
Route LACOU DCT CHALA DCT CNA DCT MANAK DCT EPAPU DCT RINSO DCT EKRAS DCT REVTU DCT BOLRO UP87 ROXOG
Aircraft A35K/H-SDE2E3GHIJ3J4J5LM1ORWXY/LB1D1

Departure

Time 2026-05-05 10:50
Airport Toulouse-Blagnac Airport (LFBO)

Arrival

Time N/A
Airport London Heathrow Airport (EGLL)
Time Latitude Longitude Altitude Speed Heading
2026-05-05 10:28 43.63130 1.36989 500 ft 0 kts 66°
2026-05-05 10:38 43.63130 1.36988 500 ft 1 kts 66°
2026-05-05 10:39 43.63121 1.36959 500 ft 2 kts 65°
2026-05-05 10:39 43.63112 1.36932 500 ft 4 kts 62°
2026-05-05 10:39 43.63101 1.36900 500 ft 4 kts 89°
2026-05-05 10:39 43.63109 1.36876 500 ft 4 kts 138°
2026-05-05 10:40 43.63127 1.36855 500 ft 1 kts 139°
2026-05-05 10:44 43.63125 1.36857 500 ft 1 kts 138°
2026-05-05 10:44 43.63109 1.36879 500 ft 6 kts 136°
2026-05-05 10:44 43.63072 1.36935 500 ft 9 kts 130°
2026-05-05 10:45 43.63030 1.37013 500 ft 11 kts 140°
2026-05-05 10:45 43.62969 1.36990 500 ft 10 kts 230°
2026-05-05 10:45 43.62909 1.36947 500 ft 10 kts 168°
2026-05-05 10:45 43.62839 1.37007 500 ft 14 kts 144°
2026-05-05 10:46 43.62756 1.37092 500 ft 16 kts 143°
2026-05-05 10:46 43.62664 1.37188 500 ft 17 kts 143°
2026-05-05 10:46 43.62563 1.37292 500 ft 19 kts 143°
2026-05-05 10:46 43.62454 1.37405 500 ft 20 kts 143°
2026-05-05 10:47 43.62351 1.37512 500 ft 19 kts 143°
2026-05-05 10:47 43.62255 1.37612 500 ft 16 kts 142°
2026-05-05 10:47 43.62169 1.37652 500 ft 13 kts 201°
2026-05-05 10:47 43.62102 1.37563 500 ft 14 kts 232°
2026-05-05 10:48 43.62040 1.37450 500 ft 16 kts 233°
2026-05-05 10:48 43.61979 1.37340 500 ft 14 kts 232°
2026-05-05 10:48 43.61926 1.37243 500 ft 9 kts 232°
2026-05-05 10:48 43.61933 1.37176 500 ft 8 kts 313°
2026-05-05 10:49 43.61996 1.37108 500 ft 23 kts 322°
2026-05-05 10:49 43.62312 1.36780 500 ft 90 kts 323°
2026-05-05 10:49 43.62978 1.36088 500 ft 147 kts 323°
2026-05-05 10:49 43.63881 1.35183 912 ft 161 kts 322°
2026-05-05 10:50 43.64788 1.34334 1649 ft 154 kts 323°
2026-05-05 10:50 43.65646 1.33497 2224 ft 156 kts 321°
2026-05-05 10:50 43.66566 1.32526 2537 ft 176 kts 320°
2026-05-05 10:50 43.67582 1.31417 2889 ft 197 kts 319°
2026-05-05 10:51 43.68718 1.30173 3203 ft 220 kts 320°
2026-05-05 10:51 43.69990 1.28811 3581 ft 241 kts 321°
2026-05-05 10:51 43.71359 1.27394 4199 ft 250 kts 323°
2026-05-05 10:51 43.72972 1.26404 4888 ft 258 kts 343°
2026-05-05 10:52 43.74730 1.25812 5607 ft 263 kts 345°
2026-05-05 10:52 43.76501 1.25242 6359 ft 266 kts 343°
2026-05-05 10:52 43.78254 1.24357 7057 ft 270 kts 334°
2026-05-05 10:52 43.79981 1.23248 7771 ft 276 kts 332°
2026-05-05 10:53 43.81734 1.22092 8551 ft 281 kts 332°
2026-05-05 10:53 43.83517 1.20920 9347 ft 285 kts 331°
2026-05-05 10:53 43.85329 1.19731 10119 ft 290 kts 331°
2026-05-05 10:53 43.87177 1.18514 10554 ft 308 kts 331°
2026-05-05 10:54 43.89173 1.17198 10907 ft 327 kts 332°
2026-05-05 10:54 43.91296 1.15804 11289 ft 345 kts 332°
2026-05-05 10:54 43.93505 1.14353 11758 ft 357 kts 332°
2026-05-05 10:54 43.95796 1.12902 12421 ft 365 kts 335°
2026-05-05 10:55 43.98194 1.11623 13116 ft 372 kts 337°
2026-05-05 10:55 44.00640 1.10380 13813 ft 377 kts 338°
2026-05-05 10:55 44.03139 1.09149 14426 ft 382 kts 338°
2026-05-05 10:55 44.05625 1.07945 15075 ft 385 kts 339°
2026-05-05 10:56 44.08170 1.06720 15718 ft 389 kts 339°
2026-05-05 10:56 44.10755 1.05475 16232 ft 397 kts 339°
2026-05-05 10:56 44.13391 1.04200 16753 ft 404 kts 339°
2026-05-05 10:56 44.16063 1.02905 17376 ft 408 kts 339°
2026-05-05 10:57 44.18760 1.01595 18014 ft 413 kts 339°
2026-05-05 10:57 44.21484 1.00269 18623 ft 417 kts 339°
2026-05-05 10:57 44.24210 0.98940 19245 ft 420 kts 339°
2026-05-05 10:57 44.26979 0.97588 19886 ft 423 kts 339°
2026-05-05 10:58 44.29778 0.96222 20494 ft 427 kts 339°
2026-05-05 10:58 44.32589 0.94847 21095 ft 431 kts 339°
2026-05-05 10:58 44.35434 0.93454 21718 ft 434 kts 339°
2026-05-05 10:58 44.38295 0.92051 22332 ft 437 kts 338°
2026-05-05 10:59 44.41179 0.90636 22936 ft 441 kts 338°
2026-05-05 10:59 44.44087 0.89206 23550 ft 444 kts 339°
2026-05-05 10:59 44.47014 0.87766 24054 ft 447 kts 339°
2026-05-05 10:59 44.49963 0.86314 24534 ft 452 kts 338°
2026-05-05 11:00 44.52944 0.84844 25019 ft 455 kts 338°
2026-05-05 11:00 44.55943 0.83364 25480 ft 459 kts 338°
2026-05-05 11:00 44.58967 0.81870 25954 ft 463 kts 338°
2026-05-05 11:00 44.62016 0.80361 26429 ft 466 kts 338°
2026-05-05 11:01 44.65043 0.78862 26938 ft 468 kts 338°
2026-05-05 11:01 44.68128 0.77333 27431 ft 472 kts 338°
2026-05-05 11:01 44.71245 0.75786 27889 ft 476 kts 338°
2026-05-05 11:01 44.74386 0.74225 28264 ft 481 kts 338°
2026-05-05 11:02 44.77556 0.72648 28686 ft 485 kts 338°
2026-05-05 11:02 44.80748 0.71059 29130 ft 488 kts 338°
2026-05-05 11:02 44.83962 0.69456 29591 ft 492 kts 338°
2026-05-05 11:02 44.87197 0.67841 30042 ft 495 kts 338°
2026-05-05 11:03 44.90458 0.66211 30347 ft 499 kts 338°
2026-05-05 11:03 44.93739 0.64570 30659 ft 501 kts 338°
2026-05-05 11:03 44.97032 0.62922 30985 ft 503 kts 338°
2026-05-05 11:03 45.00353 0.61257 31306 ft 505 kts 338°
2026-05-05 11:04 45.03659 0.59599 31794 ft 502 kts 338°
2026-05-05 11:04 45.06952 0.57945 32214 ft 502 kts 338°
2026-05-05 11:04 45.10199 0.56312 32565 ft 502 kts 338°
2026-05-05 11:04 45.13497 0.54650 32924 ft 502 kts 338°
2026-05-05 11:05 45.16793 0.52987 33303 ft 501 kts 338°
2026-05-05 11:05 45.20084 0.51324 33684 ft 501 kts 338°
2026-05-05 11:05 45.23372 0.49660 33904 ft 504 kts 338°
2026-05-05 11:06 45.29999 0.46298 33927 ft 510 kts 338°
2026-05-05 11:06 45.36677 0.42906 33933 ft 509 kts 338°
2026-05-05 11:07 45.43363 0.39502 33933 ft 509 kts 338°
2026-05-05 11:07 45.50037 0.36094 33940 ft 508 kts 339°
2026-05-05 11:08 45.56658 0.32704 33931 ft 508 kts 339°
2026-05-05 11:08 45.63313 0.29288 33936 ft 508 kts 339°
2026-05-05 11:09 45.69976 0.25860 33929 ft 508 kts 339°
2026-05-05 11:09 45.76630 0.22428 33912 ft 508 kts 339°
2026-05-05 11:10 45.83273 0.18998 33910 ft 508 kts 339°
2026-05-05 11:10 45.89923 0.15550 33911 ft 508 kts 339°
2026-05-05 11:11 45.96538 0.12107 33914 ft 508 kts 339°
2026-05-05 11:11 46.03193 0.08636 33909 ft 509 kts 339°
2026-05-05 11:12 46.09865 0.05151 33901 ft 509 kts 339°
2026-05-05 11:12 46.16524 0.01663 33903 ft 510 kts 339°
2026-05-05 11:13 46.23197 -0.01842 33896 ft 509 kts 340°
2026-05-05 11:13 46.29855 -0.05348 33895 ft 509 kts 340°
2026-05-05 11:14 46.36471 -0.08841 33887 ft 509 kts 340°
2026-05-05 11:14 46.43125 -0.12362 33884 ft 509 kts 340°
2026-05-05 11:15 46.49782 -0.15894 33883 ft 509 kts 340°
2026-05-05 11:15 46.56434 -0.19433 33885 ft 509 kts 340°
2026-05-05 11:16 46.63092 -0.22985 33885 ft 509 kts 340°
2026-05-05 11:16 46.69744 -0.26543 33878 ft 509 kts 340°
2026-05-05 11:17 46.76394 -0.30109 33873 ft 509 kts 340°
2026-05-05 11:17 46.82993 -0.33657 33881 ft 509 kts 340°
2026-05-05 11:18 46.89637 -0.37238 33881 ft 509 kts 340°
2026-05-05 11:18 46.96286 -0.40832 33881 ft 509 kts 340°
2026-05-05 11:19 47.02935 -0.44436 33875 ft 509 kts 341°
2026-05-05 11:19 47.09576 -0.48044 33871 ft 509 kts 341°
2026-05-05 11:20 47.16221 -0.51665 33872 ft 509 kts 341°
2026-05-05 11:20 47.22819 -0.55270 33881 ft 510 kts 341°
2026-05-05 11:21 47.29482 -0.58918 33881 ft 511 kts 341°
2026-05-05 11:21 47.36145 -0.62578 33871 ft 510 kts 341°
2026-05-05 11:22 47.42801 -0.66243 33869 ft 511 kts 341°
2026-05-05 11:22 47.49465 -0.69923 33872 ft 512 kts 341°
2026-05-05 11:23 47.56141 -0.73619 33868 ft 512 kts 341°
2026-05-05 11:23 47.62779 -0.77305 33876 ft 512 kts 341°
2026-05-05 11:24 47.69467 -0.81027 33877 ft 514 kts 341°
2026-05-05 11:24 47.75039 -0.84133 33877 ft 514 kts 341°
2026-05-05 11:25 47.81746 -0.87879 33866 ft 515 kts 341°
2026-05-05 11:25 47.88474 -0.91641 33886 ft 516 kts 341°
2026-05-05 11:26 47.95205 -0.95410 33882 ft 517 kts 341°
2026-05-05 11:26 48.01942 -0.99186 33875 ft 516 kts 341°
2026-05-05 11:27 48.08673 -1.02965 33881 ft 516 kts 341°
2026-05-05 11:27 48.15396 -1.06747 33878 ft 516 kts 341°
2026-05-05 11:28 48.22075 -1.10513 33882 ft 516 kts 341°